#timestamp,LO_Frequency,Hit,StdDev 
1516309215.5,286046990.1,N
1516309235.3,286046990.4,N
1516309255.2,286046991.5,N
1516309275.0,286046988.9,Y
1516309275.9,286046988.9,P
1516309295.8,286046994.1,N
1516309315.6,286046992.4,N
1516309335.4,286046992.7,Y
1516309355.3,286046999.6,P
1516309375.1,286046997.8,N
1516309395.9,286046996.6,N
1516309415.7,286046997.3,N
1516309435.5,286046997.7,N
1516309455.4,286046996.8,N
1516309475.2,286046999.5,N
1516309495.0,286046997.6,N
1516309495.9,286046997.6,N
1516309515.8,286046995.4,N
1516309535.6,286046997.4,N
1516309555.5,286046996.0,N
1516309575.3,286046991.7,Y
1516309595.1,286046993.5,P
1516309615.9,286046994.8,N
1516309635.7,286046991.8,P
1516309655.6,286046991.8,Y
1516309675.4,286046996.9,P
1516309695.2,286046997.2,N
1516309715.1,286046996.5,N
1516309716.0,286046996.5,Y
1516309735.8,286047002.4,P
1516309755.6,286046999.7,N
1516309775.5,286047000.5,N
1516309795.3,286046998.6,N
1516309815.2,286047000.7,N
1516309835.9,286046998.4,N
1516309855.7,286046995.1,N
1516309875.6,286046997.6,N
1516309895.4,286046995.1,N
1516309915.2,286046995.8,N
1516309935.1,286046997.7,N
1516309936.0,286046997.7,N
1516309955.8,286046995.0,N
1516309975.7,286046995.3,N
1516309995.5,286046994.9,N
1516310015.3,286046993.8,N
1516310035.2,286046993.7,N
1516310055.0,286046992.1,Y
1516310055.9,286046992.1,P
1516310075.8,286046995.4,N
1516310095.6,286046995.3,N
1516310115.4,286046993.7,Y
1516310135.3,286046998.5,P
1516310155.1,286046996.9,N
1516310175.8,286046997.2,N
1516310195.7,286046997.2,N
1516310215.5,286046996.7,N
1516310235.4,286046995.1,Y
1516310255.2,286046996.8,P
1516310275.0,286046996.6,P
1516310275.9,286046996.6,P
1516310295.8,286046996.9,Y
1516310315.6,286046999.9,P
1516310335.5,286047000.7,N
1516310355.3,286047001.0,N
1516310375.1,286046998.5,N
1516310395.9,286046998.7,N
1516310415.7,286046999.6,N
1516310435.5,286046999.3,N
1516310455.4,286046999.6,N
1516310475.2,286046996.3,Y
1516310495.1,286046996.4,P
1516310496.0,286046996.4,N
1516310515.8,286046993.8,P
1516310535.6,286046994.6,N
1516310555.5,286046994.2,Y
1516310575.3,286046997.2,P
1516310595.1,286046996.1,P
1516310615.9,286046996.1,P
1516310635.7,286046995.9,Y
1516310655.6,286046999.6,P
1516310675.4,286046996.6,N
1516310695.2,286046997.2,N
1516310715.1,286046997.9,N
1516310716.0,286046997.9,N
1516310735.8,286046995.5,Y
1516310755.7,286046998.6,P
1516310775.5,286046998.1,P
1516310795.3,286046997.5,P
1516310815.2,286046995.9,Y
1516310835.0,286046995.6,P
1516310835.9,286046995.6,P
1516310855.8,286046996.0,P
1516310875.6,286046992.6,Y
1516310895.4,286046993.3,P
1516310915.3,286046997.9,N
1516310935.1,286046998.0,N
1516310955.8,286046995.2,N
1516310975.7,286046995.1,N
1516310995.5,286046993.5,Y
1516311015.4,286046998.4,P
1516311035.2,286046998.7,N
1516311055.0,286047001.1,N
1516311055.9,286047001.1,N
1516311075.8,286046999.5,N
1516311095.6,286046998.4,N
1516311115.5,286046996.5,N
1516311135.3,286046997.2,N
1516311155.1,286046996.8,N
1516311175.9,286046997.8,N
1516311195.7,286046995.6,N
1516311215.5,286046995.8,N
1516311235.4,286046993.6,Y
1516311255.2,286046997.1,P
1516311275.1,286046995.7,P
1516311276.0,286046995.7,P
1516311295.8,286046995.5,Y
1516311315.6,286046996.9,P
1516311335.5,286046995.1,P
1516311355.3,286046996.3,P
1516311375.2,286046993.6,Y
1516311395.9,286046999.5,P
1516311415.7,286046999.0,N
1516311435.6,286047000.2,N
1516311455.4,286046999.8,N
1516311475.2,286047001.1,N
1516311495.1,286046998.7,N
1516311496.0,286046998.7,N
1516311515.8,286046999.5,N
1516311535.7,286046997.0,N
1516311555.5,286046996.7,N
1516311575.3,286046996.8,N
1516311595.2,286046995.4,Y
1516311615.0,286046994.9,P
1516311615.9,286046994.9,N
1516311635.8,286046996.1,N
1516311655.6,286046995.0,Y
1516311675.4,286046998.7,P
1516311695.3,286046998.4,N
1516311715.1,286047000.8,N
1516311735.8,286046999.3,N
1516311755.7,286046997.5,N
1516311775.5,286046995.5,Y
1516311795.4,286046999.4,P
1516311815.2,286046996.5,P
1516311835.0,286046999.6,N
1516311835.9,286046999.6,N
1516311855.8,286046999.4,N
1516311875.6,286047000.6,N
1516311895.5,286046999.9,N
1516311915.3,286047000.5,N
1516311935.1,286047000.7,N
1516311955.9,286047000.8,N
1516311975.7,286047000.4,N
1516311995.5,286046999.7,N
1516312015.4,286047000.5,N
1516312035.2,286046999.9,N
1516312055.1,286046999.7,N
1516312056.0,286046999.7,N
1516312075.8,286046999.8,N
1516312095.6,286047002.2,N
1516312115.5,286046998.1,N
1516312135.3,286046999.0,N
1516312155.1,286047000.7,N
1516312175.9,286046996.5,Y
1516312195.7,286046999.1,P
1516312215.6,286046996.5,P
1516312235.4,286046999.4,N
1516312255.2,286046997.1,N
1516312275.1,286046997.0,N
1516312276.0,286046997.0,N
1516312295.8,286046997.1,N
1516312315.7,286046997.8,N
1516312335.5,286046995.6,Y
1516312355.3,286046997.2,P
1516312375.2,286046995.4,P
1516312395.0,286046997.4,N
1516312395.9,286046997.4,N
1516312415.8,286046995.4,Y
1516312435.6,286046996.8,P
1516312455.4,286046997.8,P
1516312475.3,286046997.7,P
1516312495.1,286046996.4,Y
1516312515.8,286046999.6,P
1516312535.7,286046999.2,N
1516312555.5,286046999.5,N
1516312575.4,286046999.3,N
1516312595.2,286046999.6,N
1516312615.0,286046999.2,N
1516312615.9,286046999.2,N
1516312635.8,286046996.8,Y
1516312655.6,286046997.0,P
1516312675.5,286046995.0,P
1516312695.3,286046995.4,N
1516312715.1,286046997.8,N
1516312735.9,286046996.1,N
1516312755.7,286046995.0,Y
1516312775.5,286047000.3,P
1516312795.4,286046998.6,N
